YAOGAN 10

导读 | 星芒AI

遥感十号卫星(YAOGAN 10)是中国于2015年10月7日发射的一颗光学遥感卫星,主要用于国土普查、环境监测、灾害预警和农业资源调查等领域。该卫星由中国航天科技集团公司研制,运行在太阳同步轨道,具备高分辨率成像能力,能够提供高质量的遥感数据,支持国家在资源管理、城市规划和科学研究等方面的应用需求。

基本信息
目录编号:
36834
目录名称:
YAOGAN 10
国际标识:
2010-038A
轨道中心:
EARTH
卫星名称:
YAOGAN 10
卫星全名:
--
卫星状态:
在轨 (已飞行5560 天)
发射日期:
2010-08-09 UTC
国别 :
中国 (CN)
星等 :
--
轨道信息
数据来源 国际轨道数据
星历时间: 2025-10-29T00:41:47+0800
14小时前
查看轨道信息
半长轴: 6993.414km
偏心率: 0.0001557
轨道倾角: 97.919°
近地点辐角 94.647°
升交点赤经 321.847°
平近点角 41.738°
近地点: 614.19km
远地点: 616.368km
周期: 97.005分钟
每日圈数: 14.844614
详细信息
使用方式:
暂无
2D轨道图
3D轨道图
轨道高度分析图
轨道倾角分析图
轨道综合分析图
查看轨道综合分析图